User: anonymous   Login
Location: Altamira
(10.5079°N, 66.8544°W)
Time: 00:12:52
(UTC+00:00)
Language:

SL-16 R/B - Orbit

View from above orbital plane
View from above orbital plane
View from above satellite
View from above satellite

Ground track
Ground track

The orbit data is extracted from the following two-line orbital elements,

1 31793U 07029B   22140.45886303  .00000330  00000-0  19724-3 0  9999
2 31793  70.9767 211.6718 0002501 273.7907 170.8965 14.14475167768906
Epoch (UTC): 20 May 2022 11:00:45
Eccentricity: 0.0002501
inclination: 70.9767°
perigee height: 842 km
apogee height: 846 km
right ascension of ascending node: 211.6718°
argument of perigee: 273.7907°
revolutions per day: 14.14475167
mean anomaly at epoch: 170.8965°
orbit number at epoch: 76890

The dashed part of the orbit path shows where the satellite is in the earth's shadow,  

DLR